World > North America > United States > California

Hourly Eagle Mountain, CA Regional Weather

Feedback E-mail the Weather

Quick WX

Eagle Mountain, CA Weather Maps

°F °C°F °C
Eagle Mountain Weather Map
UTC Time: 7/1/2022, 08:16
Your Time:

Eagle Mountain, CA Regional Weather

Expires:202207010900;;482885
ASUS45 KPSR 010810
RWRAZ 

ARIZONA HOURLY REGIONAL WEATHER ROUNDUP
NATIONAL WEATHER SERVICE PHOENIX AZ
100 AM MST FRI JUL 01 2022

NOTE: FAIR INDICATES FEW OR NO CLOUDS BELOW 12,000 FEET WITH NO
SIGNIFICANT WEATHER AND/OR OBSTRUCTIONS TO VISIBILITY.


CAZ041-043-047-048-061-525>527-560>570-010900-
SOUTHERN CALIFORNIA
  
CITY           SKY/WX    TMP DP  RH WIND       PRES   REMARKS
DOWNTOWN L.A.  CLEAR     64  59  83 CALM      29.98S                  
L.A. AIRPORT   PTCLDY    65  59  81 SW5       29.98S                  
SAN DIEGO      MOCLDY    66  63  90 NW3       30.01R                  
BURBANK        CLEAR     69  59  70 E7        29.98S                  
ONTARIO        CLEAR     71  60  68 W6        29.99R                  
RIVERSIDE      CLEAR     70  57  63 W3        29.99R                  
PALM SPRINGS   PTCLDY    91  41  17 SE3       29.82R                  
EL CENTRO NAS  PTCLDY    93  39  15 W16       29.81S                  
IMPERIAL       PTCLDY    87  43  21 W12       29.79R                  
BLYTHE         CLEAR     92  47  21 S17       29.80R                  
NEEDLES        CLEAR     97  39  13 W14       29.80R                  
$$


SKY/WX - Weather  TMP - Temperature  DP - Dew Point  RH - Humidity
WIND - Wind Direction/Speed PRES - Barometric Pressure VSB - Visibility
WCI - Wind Chill Index E13G22 Wind - East Wind 13 mph/Gusts of 22 mph

Trending Headlines

Eagle Mountain Radar Loop



Eagle Mountain Quick Facts


National Two Day Weather Forecast


E-mail the Eagle Mountain Weather Forecast

Voice your opinion or tell us about page issues...